Regional Weather Roundup
Issued by NWS Bismarck, ND

Home | Current Version | Previous Version | Text Only | Print | Product List | Glossary On
Versions: 1 2 3 4 5 6 7 8 9 10 11 12 13 14 15 16 17 18 19 20 21 22 23 24 25 26 27 28 29 30 31 32 33 34 35 36 37 38 39 40 41 42 43 44 45 46 47 48 49 50
000
ASUS43 KBIS 240802
RWRBIS

NWR BROADCAST TEXT
NATIONAL WEATHER SERVICE BISMARCK ND
200 AM CST FRI FEB 24 2017

NOTE: "FAIR" INDICATES FEW OR NO CLOUDS BELOW 12,000 FEET WITH NO
SIGNIFICANT WEATHER AND/OR OBSTRUCTIONS TO VISIBILITY.


CITY           SKY/WX    TMP DP  RH WIND       PRES   REMARKS
WILLISTON      CLOUDY    10   7  87 CALM      30.16S
MINOT          CLOUDY    24  16  71 W9        30.13S WCI  14
MINOT AFB      NOT AVBL
BISMARCK       FAIR      16  11  80 W3        30.16S
DICKINSON      FAIR      12   7  80 NE6       30.09S WCI   3
GARRISON         N/A      9   6  88 CALM      30.14S
HETTINGER ARPT FAIR      14  10  84 N7        30.10S WCI   4
JAMESTOWN      FAIR      19  16  88 N9        30.10F WCI   8
CARRINGTON     FAIR      18  14  86 NW8       30.15S WCI   7
HAZEN            N/A    N/A N/A N/A SW5       30.18S
MANDAN         FAIR      14  10  85 N9        30.15S WCI   2
STANLEY        CLOUDY    19  19 100 W6        30.14F WCI  11
$$

CITY           SKY/WX    TMP DP  RH WIND       PRES   REMARKS
GRAND FORKS    FAIR      18  10  71 N8        30.15F WCI   8
GRAND FORKS AF FAIR      15  11  85 N7        30.16S WCI   5
DEVILS LAKE    CLOUDY    16  13  88 SW5       30.14R WCI   9
FARGO          FAIR      21  12  68 N21       30.10F WCI   5
CAVALIER         N/A     14  12  92 NE3       30.17R
GRAFTON        FAIR      14  14 100 CALM      30.19S
GWINNER        FAIR      21  18  86 N17G26    30.06F WCI   7
ROLLA          FAIR      16  12  86 NW9       30.11R WCI   4
$$

CITY           SKY/WX    TMP DP  RH WIND       PRES   REMARKS
ABERDEEN       FAIR      21  13  71 N24G30    30.04S WCI   4
MOBRIDGE       CLOUDY    26  16  65 NE18G26   30.04F WCI  13
BUFFALO          N/A     19  16  88 NE20      29.98S WCI   3
RAPID CITY     FLURRIES  24  21  88 N9        29.99S WCI  14
GLASGOW        CLOUDY    25  18  74 E13       30.09F WCI  14
SIDNEY         CLOUDY    23  18  81 NE7       30.15S WCI  15
WOLF POINT     CLOUDY    26  18  71 E7        30.13F WCI  18
GLENDIVE       CLOUDY    24  21  88 E9        30.11R WCI  14
MILES CITY     CLOUDY    28  22  78 E10       30.05S WCI  19
BAKER          CLOUDY    21  15  78 E12       30.07S WCI   9
$$

CITY           SKY/WX    TMP DP  RH WIND       PRES   REMARKS
BILLINGS       LGT SNOW  25  24  96 NE9       29.96S FOG     WCI  15
GREAT FALLS    CLOUDY    24  21  88 CALM      29.96R
$$





USA.gov is the U.S. government's official web portal to all federal, state and local government web resources and services.